Simultaneous Nadir Overpasses (SNOs) Predictions

Prediction of SNOs between GOES-15 and METOP-A Satellite Orbit:

Table of predicted SNOs for the next 14.0 days since TLE Epoch: 10/24/2020
Index Date Time (GOES-15) GOES-15 Lat,Lon METOP-A Lat,Lon Distance(km) Time Diff (sec)
1 10/25/2020 05:18:35 -0.15,-128.26 -0.93,-131.78 400.57 80
2 10/26/2020 04:55:16 -0.14,-128.24 0.17,-126.80 164.22 80
3 10/27/2020 17:16:48 0.16,-128.17 0.85,-131.39 366.63 80
4 10/28/2020 16:53:29 0.15,-128.15 -0.25,-126.41 198.07 80
5 10/30/2020 05:15:09 -0.16,-128.15 -0.79,-131.04 329.13 80
6 10/31/2020 04:51:50 -0.15,-128.13 0.30,-126.06 235.35 80
7 11/01/2020 17:13:22 0.17,-128.06 0.71,-130.66 296.29 80
8 11/02/2020 16:50:01 0.16,-128.03 -0.33,-125.67 267.85 80
9 11/04/2020 05:11:42 -0.18,-128.02 -0.71,-130.30 260.58 80
10 11/05/2020 04:48:22 -0.18,-127.99 0.39,-125.32 303.17 80
11 11/06/2020 17:09:55 0.19,-127.90 0.63,-129.92 229.82 80
